Location: Bratislava
(48.1500°N, 17.1167°E)
Time: 17:29:32
(UTC+01:00)

ISS - Pass Details

Date: 21 January 2020
Orbit: 415 x 422 km, 51.6° (Epoch: 26 February)

Event Time Altitude Azimuth Distance (km) Brightness Sun altitude
Rises 19:05:27 0° 232° (SW) 2,370 0.9 -25.0°
Reaches altitude 10° 19:07:35 10° 228° (SW) 1,507 -0.3 -25.4°
Enters shadow 19:08:55 22° 221° (SW) 993 -1.5 -25.6°
